,,,PA_Meas_PMT16A,,PR_Meas_QMR101_102,,RH_Meas_QMH101,,SR_Meas_QMS101,,TA_Meas_QMH101,,GenWind,,GenWind,
date,time,status,PA,status,PR,status,RH,status,SR,status,TA,status,DirAvg,status,SpdAvg,
2009-10-13, 00:00:05,VALID,1000.73,VALID,0,VALID,89.8922,VALID,0,VALID,23.6214,VALID,28,VALID,0.0015625,
2009-10-13, 00:01:05,VALID,1000.75,VALID,0,VALID,90.0524,VALID,0,VALID,23.5823,VALID,28,VALID,0.351172,
2009-10-13, 00:02:05,VALID,1000.75,VALID,0,VALID,90.3805,VALID,0.112286,VALID,23.5628,VALID,28,VALID,0.476953,
2009-10-13, 00:03:05,VALID,1000.74,VALID,0,VALID,90.8611,VALID,0,VALID,23.5628,VALID,28,VALID,0.656641,
2009-10-13, 00:04:05,VALID,1000.75,VALID,0,VALID,90.823,VALID,0,VALID,23.5628,VALID,28,VALID,0.546875,
2009-10-13, 00:05:05,VALID,1000.73,VALID,0,VALID,90.7849,VALID,0,VALID,23.5646,VALID,28,VALID,0.614844,
2009-10-13, 00:06:05,VALID,1000.72,VALID,0,VALID,90.7085,VALID,0.112286,VALID,23.5646,VALID,28,VALID,0.679688,
2009-10-13, 00:07:05,VALID,1000.73,VALID,0,VALID,90.617,VALID,0,VALID,23.5238,VALID,28,VALID,0.755469,
2009-10-13, 00:08:05,VALID,1000.73,VALID,0,VALID,90.7849,VALID,0.112286,VALID,23.5256,VALID,28,VALID,0.887109,
2009-10-13, 00:09:05,VALID,1000.74,VALID,0,VALID,91.029,VALID,0.112286,VALID,23.5256,VALID,23,VALID,0.979297,
2009-10-13, 00:10:05,VALID,1000.74,VALID,0,VALID,91.0671,VALID,0,VALID,23.5256,VALID,19,VALID,0.919531,
2009-10-13, 00:11:05,VALID,1000.73,VALID,0,VALID,90.8459,VALID,0,VALID,23.5256,VALID,19,VALID,0.857422,
2009-10-13, 00:12:05,VALID,1000.72,VALID,0,VALID,90.6399,VALID,0,VALID,23.4848,VALID,19,VALID,0.8,
2009-10-13, 00:13:05,VALID,1000.75,VALID,0,VALID,90.4797,VALID,0.112286,VALID,23.4475,VALID,20,VALID,0.759766,
2009-10-13, 00:14:05,VALID,1000.78,VALID,0,VALID,90.7849,VALID,0,VALID,23.428,VALID,28,VALID,0.482422,
2009-10-13, 00:15:05,VALID,1000.8,VALID,0,VALID,90.8611,VALID,0,VALID,23.4085,VALID,28,VALID,0.145703,
2009-10-13, 00:16:05,VALID,1000.83,VALID,0,VALID,90.8917,VALID,0,VALID,23.3908,VALID,28,VALID,0.216406,
2009-10-13, 00:17:05,VALID,1000.84,VALID,0,VALID,91.1053,VALID,0,VALID,23.35,VALID,28,VALID,0.2,
2009-10-13, 00:18:05,VALID,1000.82,VALID,0,VALID,91.2503,VALID,0,VALID,23.3518,VALID,28,VALID,0.188281,
2009-10-13, 00:19:05,VALID,1000.83,VALID,0,VALID,91.4028,VALID,0,VALID,23.3518,VALID,28,VALID,0.0691406,
2009-10-13, 00:20:05,VALID,1000.85,VALID,0,VALID,91.4639,VALID,0,VALID,23.311,VALID,28,VALID,0.323828,
2009-10-13, 00:21:05,VALID,1000.83,VALID,0,VALID,91.4715,VALID,0,VALID,23.2915,VALID,28,VALID,0.361719,
2009-10-13, 00:22:05,VALID,1000.81,VALID,0,VALID,91.4105,VALID,0,VALID,23.2932,VALID,28,VALID,0.342578,
2009-10-13, 00:23:05,VALID,1000.79,VALID,0,VALID,91.5173,VALID,0,VALID,23.2542,VALID,28,VALID,0.80625,
2009-10-13, 00:24:05,VALID,1000.83,VALID,0,VALID,91.4257,VALID,0,VALID,23.2524,VALID,28,VALID,0.951172,
2009-10-13, 00:25:05,VALID,1000.8,VALID,0,VALID,91.029,VALID,0,VALID,23.2932,VALID,28,VALID,1.02813,
2009-10-13, 00:26:05,VALID,1000.79,VALID,0,VALID,90.7467,VALID,0,VALID,23.3127,VALID,28,VALID,1.07422,
2009-10-13, 00:27:05,VALID,1000.76,VALID,0,VALID,90.6399,VALID,0,VALID,23.2915,VALID,28,VALID,0.901563,
2009-10-13, 00:28:05,VALID,1000.78,VALID,0,VALID,90.6094,VALID,0,VALID,23.2932,VALID,28,VALID,0.854297,
2009-10-13, 00:29:05,VALID,1000.76,VALID,0,VALID,90.5407,VALID,0,VALID,23.311,VALID,28,VALID,0.814453,
2009-10-13, 00:30:05,VALID,1000.75,VALID,0,VALID,90.4873,VALID,0,VALID,23.2897,VALID,28,VALID,0.998047,
2009-10-13, 00:31:05,VALID,1000.76,VALID,0,VALID,90.4491,VALID,0,VALID,23.2915,VALID,28,VALID,0.949219,
2009-10-13, 00:32:05,VALID,1000.72,VALID,0,VALID,90.3728,VALID,0.112286,VALID,23.3092,VALID,28,VALID,0.922266,
2009-10-13, 00:33:05,VALID,1000.7,VALID,0,VALID,90.2279,VALID,0.112286,VALID,23.3092,VALID,28,VALID,0.800781,
2009-10-13, 00:34:05,VALID,1000.7,VALID,0,VALID,90.2508,VALID,0,VALID,23.3092,VALID,28,VALID,0.824219,
2009-10-13, 00:35:05,VALID,1000.69,VALID,0,VALID,90.2279,VALID,0,VALID,23.3305,VALID,28,VALID,0.871094,
2009-10-13, 00:36:04,VALID,1000.68,VALID,0,VALID,90.1516,VALID,0,VALID,23.3287,VALID,28,VALID,0.766797,
2009-10-13, 00:37:04,VALID,1000.68,VALID,0,VALID,90.0753,VALID,0.112286,VALID,23.3305,VALID,28,VALID,0.648438,
2009-10-13, 00:38:04,VALID,1000.7,VALID,0,VALID,90.1897,VALID,0,VALID,23.35,VALID,28,VALID,0.620703,
2009-10-13, 00:39:04,VALID,1000.69,VALID,0,VALID,90.266,VALID,0.112286,VALID,23.35,VALID,32,VALID,0.737109,
2009-10-13, 00:40:04,VALID,1000.7,VALID,0,VALID,90.2126,VALID,0,VALID,23.3872,VALID,36,VALID,0.848047,
2009-10-13, 00:41:04,VALID,1000.7,VALID,0,VALID,90.4263,VALID,0,VALID,23.4866,VALID,44,VALID,0.784375,
2009-10-13, 00:42:04,VALID,1000.73,VALID,0,VALID,90.3881,VALID,0.112286,VALID,23.5238,VALID,49,VALID,0.784766,
2009-10-13, 00:43:04,VALID,1000.69,VALID,0,VALID,90.2584,VALID,0.112286,VALID,23.5646,VALID,60,VALID,0.888672,
2009-10-13, 00:44:04,VALID,1000.68,VALID,0,VALID,90.3347,VALID,0,VALID,23.5664,VALID,64,VALID,0.845312,
2009-10-13, 00:45:04,VALID,1000.68,VALID,0,VALID,90.6323,VALID,0,VALID,23.5664,VALID,64,VALID,0.773438,
2009-10-13, 00:46:04,VALID,1000.68,VALID,0,VALID,90.6246,VALID,0,VALID,23.5451,VALID,72,VALID,0.769922,
2009-10-13, 00:47:04,VALID,1000.67,VALID,0,VALID,90.5483,VALID,0,VALID,23.5469,VALID,86,VALID,0.728906,
2009-10-13, 00:48:04,VALID,1000.65,VALID,0,VALID,90.4568,VALID,0,VALID,23.5079,VALID,86,VALID,0.653125,
2009-10-13, 00:49:04,VALID,1000.62,VALID,0,VALID,90.3576,VALID,0,VALID,23.5079,VALID,86,VALID,0.523047,
2009-10-13, 00:50:04,VALID,1000.64,VALID,0,VALID,90.2279,VALID,0,VALID,23.4884,VALID,86,VALID,0.476953,
2009-10-13, 00:51:04,VALID,1000.65,VALID,0,VALID,90.144,VALID,0,VALID,23.4884,VALID,86,VALID,0.438281,
2009-10-13, 00:52:04,VALID,1000.66,VALID,0,VALID,90.1592,VALID,0,VALID,23.4688,VALID,86,VALID,0.44375,
2009-10-13, 00:53:04,VALID,1000.64,VALID,0,VALID,90.2203,VALID,0,VALID,23.4475,VALID,86,VALID,0.426562,
2009-10-13, 00:54:04,VALID,1000.66,VALID,0,VALID,90.3652,VALID,0,VALID,23.4688,VALID,87,VALID,0.667578,
2009-10-13, 00:55:04,VALID,1000.68,VALID,0,VALID,90.4491,VALID,0,VALID,23.4688,VALID,99,VALID,0.766406,
2009-10-13, 00:56:04,VALID,1000.69,VALID,0,VALID,90.5483,VALID,0,VALID,23.4688,VALID,103,VALID,0.926562,
2009-10-13, 00:57:04,VALID,1000.69,VALID,0,VALID,90.6933,VALID,0,VALID,23.4688,VALID,108,VALID,0.889844,
2009-10-13, 00:58:04,VALID,1000.7,VALID,0,VALID,90.6933,VALID,0,VALID,23.4884,VALID,109,VALID,0.885547,
2009-10-13, 00:59:04,VALID,1000.72,VALID,0,VALID,90.7238,VALID,0,VALID,23.4671,VALID,109,VALID,0.694141,
2009-10-13, 01:00:04,VALID,1000.71,VALID,0,VALID,90.8993,VALID,0,VALID,23.4866,VALID,109,VALID,0.671484,
2009-10-13, 01:01:04,VALID,1000.71,VALID,0,VALID,90.9527,VALID,0,VALID,23.5061,VALID,102,VALID,0.84375,
2009-10-13, 01:02:04,VALID,1000.69,VALID,0,VALID,90.9985,VALID,0,VALID,23.5061,VALID,99,VALID,1.01563,
2009-10-13, 01:03:04,VALID,1000.68,VALID,0,VALID,91.1129,VALID,0,VALID,23.5061,VALID,98,VALID,0.860156,
2009-10-13, 01:04:04,VALID,1000.67,VALID,0,VALID,91.0748,VALID,0,VALID,23.5061,VALID,99,VALID,0.832812,
2009-10-13, 01:05:04,VALID,1000.66,VALID,0,VALID,90.9985,VALID,0,VALID,23.5256,VALID,101,VALID,0.751562,
2009-10-13, 01:06:04,VALID,1000.65,VALID,0,VALID,90.9909,VALID,0,VALID,23.5061,VALID,103,VALID,0.654688,
2009-10-13, 01:07:04,VALID,1000.69,VALID,0,VALID,90.9222,VALID,0,VALID,23.5061,VALID,104,VALID,0.642578,
2009-10-13, 01:08:04,VALID,1000.71,VALID,0,VALID,90.8535,VALID,0,VALID,23.4653,VALID,104,VALID,0.513281,
2009-10-13, 01:09:04,VALID,1000.68,VALID,0,VALID,90.8459,VALID,0,VALID,23.5061,VALID,104,VALID,0.610937,
2009-10-13, 01:10:04,VALID,1000.71,VALID,0,VALID,90.7925,VALID,0,VALID,23.5061,VALID,104,VALID,0.609375,
2009-10-13, 01:11:04,VALID,1000.73,VALID,0,VALID,90.8306,VALID,0,VALID,23.5256,VALID,104,VALID,0.687891,
2009-10-13, 01:12:04,VALID,1000.74,VALID,0,VALID,90.7772,VALID,0,VALID,23.5256,VALID,99,VALID,0.837109,
2009-10-13, 01:13:04,VALID,1000.76,VALID,0,VALID,90.3652,VALID,0,VALID,23.5256,VALID,73,VALID,0.660156,
2009-10-13, 01:14:04,VALID,1000.78,VALID,0,VALID,90.1745,VALID,0,VALID,23.5061,VALID,68,VALID,0.824219,
2009-10-13, 01:15:04,VALID,1000.75,VALID,0,VALID,89.9685,VALID,0,VALID,23.4866,VALID,68,VALID,0.56875,
2009-10-13, 01:16:04,VALID,1000.72,VALID,0,VALID,90.06,VALID,0,VALID,23.4671,VALID,68,VALID,0.559375,
2009-10-13, 01:17:04,VALID,1000.74,VALID,0,VALID,90.2126,VALID,0,VALID,23.4475,VALID,68,VALID,0.446094,
2009-10-13, 01:18:04,VALID,1000.75,VALID,0,VALID,90.3194,VALID,0,VALID,23.4475,VALID,68,VALID,0.310547,
2009-10-13, 01:19:04,VALID,1000.76,VALID,0,VALID,90.4415,VALID,0,VALID,23.389,VALID,68,VALID,0.127344,
2009-10-13, 01:20:04,VALID,1000.76,VALID,0,VALID,90.5636,VALID,0,VALID,23.3695,VALID,68,VALID,0.090625,
2009-10-13, 01:21:04,VALID,1000.75,VALID,0,VALID,90.7543,VALID,0,VALID,23.35,VALID,68,VALID,0.250391,
2009-10-13, 01:22:04,VALID,1000.75,VALID,0,VALID,90.8688,VALID,0,VALID,23.3305,VALID,68,VALID,0.392578,
2009-10-13, 01:23:04,VALID,1000.76,VALID,0,VALID,90.762,VALID,0,VALID,23.2915,VALID,68,VALID,0.532812,
2009-10-13, 01:24:04,VALID,1000.76,VALID,0,VALID,90.7925,VALID,0,VALID,23.2915,VALID,67,VALID,0.557031,
2009-10-13, 01:25:04,VALID,1000.78,VALID,0,VALID,90.7696,VALID,0,VALID,23.2932,VALID,65,VALID,0.497266,
2009-10-13, 01:26:04,VALID,1000.79,VALID,0,VALID,90.762,VALID,0,VALID,23.2524,VALID,65,VALID,0.446094,
2009-10-13, 01:27:04,VALID,1000.81,VALID,0,VALID,90.7391,VALID,0,VALID,23.2134,VALID,65,VALID,0.244531,
2009-10-13, 01:28:04,VALID,1000.81,VALID,0,VALID,90.7085,VALID,0,VALID,23.1939,VALID,65,VALID,0.169531,
2009-10-13, 01:29:04,VALID,1000.78,VALID,0,VALID,90.7314,VALID,0,VALID,23.1762,VALID,65,VALID,0,
2009-10-13, 01:30:04,VALID,1000.76,VALID,0,VALID,90.8306,VALID,0,VALID,23.1566,VALID,65,VALID,0,
2009-10-13, 01:31:04,VALID,1000.73,VALID,0,VALID,90.9603,VALID,0,VALID,23.1371,VALID,65,VALID,0,
2009-10-13, 01:32:04,VALID,1000.71,VALID,0,VALID,91.0671,VALID,0,VALID,23.1176,VALID,65,VALID,0.0222656,
2009-10-13, 01:33:04,VALID,1000.67,VALID,0,VALID,91.174,VALID,0,VALID,23.1159,VALID,65,VALID,0.138281,
2009-10-13, 01:34:04,VALID,1000.66,VALID,0,VALID,91.2045,VALID,0,VALID,23.1566,VALID,65,VALID,0.119531,
2009-10-13, 01:35:04,VALID,1000.67,VALID,0,VALID,91.2045,VALID,0,VALID,23.1762,VALID,65,VALID,0.292578,
2009-10-13, 01:36:04,VALID,1000.64,VALID,0,VALID,91.09,VALID,0,VALID,23.1957,VALID,65,VALID,0.253125,
2009-10-13, 01:37:04,VALID,1000.62,VALID,0,VALID,90.9985,VALID,0,VALID,23.2347,VALID,65,VALID,0.260156,
2009-10-13, 01:38:04,VALID,1000.63,VALID,0,VALID,90.8688,VALID,0,VALID,23.2347,VALID,65,VALID,0.272656,
2009-10-13, 01:39:04,VALID,1000.64,VALID,0,VALID,90.7696,VALID,0,VALID,23.2737,VALID,65,VALID,0.280859,
2009-10-13, 01:40:04,VALID,1000.64,VALID,0,VALID,90.6094,VALID,0,VALID,23.295,VALID,65,VALID,0.140234,
2009-10-13, 01:41:04,VALID,1000.62,VALID,0,VALID,90.5941,VALID,0,VALID,23.2932,VALID,65,VALID,0.201953,
2009-10-13, 01:42:04,VALID,1000.62,VALID,0,VALID,90.4797,VALID,0,VALID,23.2932,VALID,65,VALID,0.109375,
2009-10-13, 01:43:04,VALID,1000.6,VALID,0,VALID,90.4797,VALID,0,VALID,23.2932,VALID,65,VALID,0.269531,
2009-10-13, 01:44:04,VALID,1000.61,VALID,0,VALID,90.5178,VALID,0,VALID,23.2719,VALID,65,VALID,0.174219,
2009-10-13, 01:45:04,VALID,1000.55,VALID,0,VALID,90.5483,VALID,0,VALID,23.2915,VALID,65,VALID,0.0316406,
2009-10-13, 01:46:04,VALID,1000.57,VALID,0,VALID,90.5865,VALID,0,VALID,23.2915,VALID,65,VALID,0,
2009-10-13, 01:47:04,VALID,1000.57,VALID,0,VALID,90.4873,VALID,0,VALID,23.2719,VALID,65,VALID,0,
2009-10-13, 01:48:04,VALID,1000.55,VALID,0,VALID,90.4186,VALID,0,VALID,23.2702,VALID,65,VALID,0,
2009-10-13, 01:49:04,VALID,1000.55,VALID,0,VALID,90.4034,VALID,0,VALID,23.3305,VALID,65,VALID,0,
2009-10-13, 01:50:04,VALID,1000.54,VALID,0,VALID,90.35,VALID,0,VALID,23.3092,VALID,65,VALID,0,
2009-10-13, 01:51:04,VALID,1000.53,VALID,0,VALID,90.2203,VALID,0,VALID,23.3305,VALID,65,VALID,0,
2009-10-13, 01:52:04,VALID,1000.52,VALID,0,VALID,90.1516,VALID,0.112286,VALID,23.3305,VALID,65,VALID,0,
2009-10-13, 01:53:04,VALID,1000.54,VALID,0,VALID,90.144,VALID,0,VALID,23.3092,VALID,65,VALID,0,
2009-10-13, 01:54:04,VALID,1000.55,VALID,0,VALID,90.1821,VALID,0,VALID,23.3092,VALID,65,VALID,0,
2009-10-13, 01:55:04,VALID,1000.54,VALID,0,VALID,90.0829,VALID,0.112286,VALID,23.3287,VALID,65,VALID,0,
2009-10-13, 01:56:04,VALID,1000.58,VALID,0,VALID,89.9532,VALID,0,VALID,23.3287,VALID,65,VALID,0.253125,
2009-10-13, 01:57:04,VALID,1000.55,VALID,0,VALID,89.6099,VALID,0,VALID,23.35,VALID,63,VALID,0.438672,
2009-10-13, 01:58:04,VALID,1000.58,VALID,0,VALID,89.5565,VALID,0,VALID,23.2897,VALID,37,VALID,0.601563,
2009-10-13, 01:59:04,VALID,1000.54,VALID,0,VALID,89.8693,VALID,0,VALID,23.2719,VALID,31,VALID,0.6125,
2009-10-13, 02:00:04,VALID,1000.61,VALID,0,VALID,90.3805,VALID,0,VALID,23.2329,VALID,31,VALID,0.647266,
2009-10-13, 02:01:04,VALID,1000.58,VALID,0,VALID,90.6246,VALID,0,VALID,23.2152,VALID,31,VALID,0.703906,
2009-10-13, 02:02:04,VALID,1000.59,VALID,0,VALID,90.9374,VALID,0,VALID,23.1939,VALID,31,VALID,0.655859,
2009-10-13, 02:03:04,VALID,1000.55,VALID,0,VALID,91.1053,VALID,0,VALID,23.1744,VALID,29,VALID,0.482422,
2009-10-13, 02:04:04,VALID,1000.52,VALID,0,VALID,90.8764,VALID,0,VALID,23.1957,VALID,29,VALID,0.3875,
2009-10-13, 02:05:04,VALID,1000.54,VALID,0,VALID,90.8993,VALID,0,VALID,23.1957,VALID,29,VALID,0.228125,
2009-10-13, 02:06:04,VALID,1000.52,VALID,0,VALID,90.7162,VALID,0,VALID,23.2152,VALID,29,VALID,0.0105469,
2009-10-13, 02:07:04,VALID,1000.5,VALID,0,VALID,90.7085,VALID,0,VALID,23.2347,VALID,29,VALID,0,
2009-10-13, 02:08:04,VALID,1000.49,VALID,0,VALID,90.7009,VALID,0,VALID,23.2134,VALID,29,VALID,0.140625,
2009-10-13, 02:09:04,VALID,1000.46,VALID,0,VALID,90.762,VALID,0,VALID,23.2542,VALID,29,VALID,0.0078125,
2009-10-13, 02:10:04,VALID,1000.47,VALID,0,VALID,90.7849,VALID,0,VALID,23.2542,VALID,29,VALID,0,
2009-10-13, 02:11:04,VALID,1000.46,VALID,0,VALID,90.7085,VALID,0,VALID,23.2134,VALID,29,VALID,0,
2009-10-13, 02:12:04,VALID,1000.47,VALID,0,VALID,90.7162,VALID,0,VALID,23.2347,VALID,29,VALID,0,
2009-10-13, 02:13:04,VALID,1000.48,VALID,0,VALID,90.7772,VALID,0,VALID,23.2134,VALID,29,VALID,0,
2009-10-13, 02:14:04,VALID,1000.5,VALID,0,VALID,90.7085,VALID,0,VALID,23.2134,VALID,29,VALID,0.306641,
2009-10-13, 02:15:04,VALID,1000.49,VALID,0,VALID,90.8077,VALID,0,VALID,23.2347,VALID,29,VALID,0.302734,
2009-10-13, 02:16:04,VALID,1000.44,VALID,0,VALID,90.8077,VALID,0,VALID,23.2134,VALID,29,VALID,0.335156,
2009-10-13, 02:17:04,VALID,1000.43,VALID,0,VALID,90.8154,VALID,0,VALID,23.2542,VALID,29,VALID,0.290234,
2009-10-13, 02:18:04,VALID,1000.42,VALID,0,VALID,90.762,VALID,0,VALID,23.2329,VALID,29,VALID,0.225391,
2009-10-13, 02:19:04,VALID,1000.42,VALID,0,VALID,90.556,VALID,0,VALID,23.2737,VALID,29,VALID,0.284766,
2009-10-13, 02:20:04,VALID,1000.39,VALID,0,VALID,90.5941,VALID,0,VALID,23.2737,VALID,29,VALID,0.290625,
2009-10-13, 02:21:04,VALID,1000.41,VALID,0,VALID,90.7543,VALID,0,VALID,23.2347,VALID,29,VALID,0.324219,
2009-10-13, 02:22:04,VALID,1000.38,VALID,0,VALID,90.823,VALID,0,VALID,23.2152,VALID,29,VALID,0.385547,
2009-10-13, 02:23:04,VALID,1000.4,VALID,0,VALID,90.8764,VALID,0,VALID,23.1762,VALID,29,VALID,0.416016,
2009-10-13, 02:24:04,VALID,1000.37,VALID,0,VALID,90.8535,VALID,0,VALID,23.1159,VALID,29,VALID,0.453125,
2009-10-13, 02:25:04,VALID,1000.38,VALID,0,VALID,91.1358,VALID,0,VALID,23.0573,VALID,29,VALID,0.457031,
2009-10-13, 02:26:04,VALID,1000.36,VALID,0,VALID,91.5783,VALID,0,VALID,23.0573,VALID,29,VALID,0.457422,
2009-10-13, 02:27:04,VALID,1000.38,VALID,0,VALID,91.7462,VALID,0,VALID,23.0786,VALID,29,VALID,0.461719,
2009-10-13, 02:28:04,VALID,1000.34,VALID,0,VALID,91.708,VALID,0,VALID,23.0378,VALID,29,VALID,0.474609,
2009-10-13, 02:29:04,VALID,1000.36,VALID,0,VALID,91.5783,VALID,0,VALID,23.0361,VALID,29,VALID,0.391406,
2009-10-13, 02:30:04,VALID,1000.35,VALID,0,VALID,91.502,VALID,0,VALID,23.0378,VALID,29,VALID,0.307031,
2009-10-13, 02:31:04,VALID,1000.3,VALID,0,VALID,91.38,VALID,0,VALID,23.0378,VALID,29,VALID,0.359375,
2009-10-13, 02:32:04,VALID,1000.29,VALID,0,VALID,90.9527,VALID,0,VALID,23.0573,VALID,29,VALID,0.536719,
2009-10-13, 02:33:04,VALID,1000.26,VALID,0,VALID,90.5941,VALID,0,VALID,23.0964,VALID,66,VALID,0.625,
2009-10-13, 02:34:04,VALID,1000.26,VALID,0,VALID,90.35,VALID,0,VALID,23.0946,VALID,81,VALID,0.625391,
2009-10-13, 02:35:04,VALID,1000.21,VALID,0,VALID,90.4873,VALID,0,VALID,23.1159,VALID,81,VALID,0.659375,
2009-10-13, 02:36:04,VALID,1000.25,VALID,0,VALID,91.0443,VALID,0,VALID,23.1549,VALID,81,VALID,0.620703,
2009-10-13, 02:37:04,VALID,1000.26,VALID,0,VALID,91.3952,VALID,0,VALID,23.1744,VALID,81,VALID,0.523438,
2009-10-13, 02:38:04,VALID,1000.24,VALID,0,VALID,91.4486,VALID,0,VALID,23.1939,VALID,81,VALID,0.427344,
2009-10-13, 02:39:04,VALID,1000.26,VALID,0,VALID,91.4486,VALID,0,VALID,23.1939,VALID,81,VALID,0.335938,
2009-10-13, 02:40:04,VALID,1000.22,VALID,0,VALID,91.4105,VALID,0,VALID,23.1744,VALID,81,VALID,0.189453,
2009-10-13, 02:41:04,VALID,1000.23,VALID,0,VALID,91.4028,VALID,0,VALID,23.1549,VALID,81,VALID,0.167187,
2009-10-13, 02:42:04,VALID,1000.2,VALID,0,VALID,91.3723,VALID,0,VALID,23.1354,VALID,81,VALID,0.151953,
2009-10-13, 02:43:04,VALID,1000.15,VALID,0,VALID,91.3723,VALID,0,VALID,23.1354,VALID,81,VALID,0.140234,
2009-10-13, 02:44:04,VALID,1000.15,VALID,0,VALID,91.3571,VALID,0,VALID,23.1354,VALID,81,VALID,0.143359,
2009-10-13, 02:45:04,VALID,1000.12,VALID,0,VALID,91.38,VALID,0.112286,VALID,23.0946,VALID,81,VALID,0.240234,
2009-10-13, 02:46:04,VALID,1000.1,VALID,0,VALID,91.4334,VALID,0,VALID,23.0751,VALID,81,VALID,0.214844,
2009-10-13, 02:47:04,VALID,1000.08,VALID,0,VALID,91.4944,VALID,0,VALID,23.0556,VALID,81,VALID,0.349609,
2009-10-13, 02:48:04,VALID,1000.04,VALID,0,VALID,91.5478,VALID,0,VALID,23.0751,VALID,81,VALID,0.375781,
2009-10-13, 02:49:04,VALID,1000.03,VALID,0,VALID,91.6012,VALID,0,VALID,23.0964,VALID,81,VALID,0.376172,
2009-10-13, 02:50:04,VALID,999.988,VALID,0,VALID,91.5478,VALID,0,VALID,23.1159,VALID,82,VALID,0.482031,
2009-10-13, 02:51:04,VALID,999.979,VALID,0,VALID,91.2884,VALID,0,VALID,23.1141,VALID,87,VALID,0.494531,
2009-10-13, 02:52:04,VALID,999.946,VALID,0,VALID,90.762,VALID,0,VALID,23.0946,VALID,118,VALID,0.633203,
2009-10-13, 02:53:04,VALID,999.956,VALID,0,VALID,90.5026,VALID,0,VALID,23.1141,VALID,120,VALID,0.532031,
2009-10-13, 02:54:04,VALID,999.964,VALID,0,VALID,90.1516,VALID,0,VALID,23.1531,VALID,120,VALID,0.542578,
2009-10-13, 02:55:04,VALID,999.95,VALID,0,VALID,89.8922,VALID,0,VALID,23.1726,VALID,120,VALID,0.414844,
2009-10-13, 02:56:04,VALID,999.947,VALID,0,VALID,89.8311,VALID,0,VALID,23.2117,VALID,120,VALID,0.259375,
2009-10-13, 02:57:04,VALID,999.974,VALID,0,VALID,89.7625,VALID,0,VALID,23.2507,VALID,120,VALID,0.0128906,
2009-10-13, 02:58:04,VALID,999.965,VALID,0,VALID,89.6251,VALID,0,VALID,23.2702,VALID,120,VALID,0,
2009-10-13, 02:59:04,VALID,999.938,VALID,0,VALID,89.3123,VALID,0,VALID,23.2719,VALID,120,VALID,0,
2009-10-13, 03:00:04,VALID,999.926,VALID,0,VALID,89.2513,VALID,0,VALID,23.2329,VALID,120,VALID,0.328516,
2009-10-13, 03:01:04,VALID,999.916,VALID,0,VALID,89.32,VALID,0,VALID,23.2134,VALID,120,VALID,0.198047,
2009-10-13, 03:02:04,VALID,999.896,VALID,0,VALID,89.4039,VALID,0,VALID,23.1549,VALID,120,VALID,0.319141,
2009-10-13, 03:03:04,VALID,999.898,VALID,0,VALID,89.7014,VALID,0,VALID,23.1354,VALID,120,VALID,0.412109,
2009-10-13, 03:04:04,VALID,999.874,VALID,0,VALID,89.9609,VALID,0,VALID,23.0964,VALID,104,VALID,0.490234,
2009-10-13, 03:05:04,VALID,999.904,VALID,0,VALID,90.1134,VALID,0,VALID,23.0964,VALID,54,VALID,0.565234,
2009-10-13, 03:06:04,VALID,999.937,VALID,0,VALID,90.205,VALID,0,VALID,23.0769,VALID,54,VALID,0.663281,
2009-10-13, 03:07:04,VALID,999.941,VALID,0,VALID,90.0066,VALID,0,VALID,23.0573,VALID,46,VALID,0.704687,
2009-10-13, 03:08:04,VALID,999.944,VALID,0,VALID,89.7167,VALID,0,VALID,23.0183,VALID,35,VALID,0.603125,
2009-10-13, 03:09:04,VALID,999.926,VALID,0,VALID,89.8159,VALID,0,VALID,22.9403,VALID,32,VALID,0.487109,
2009-10-13, 03:10:04,VALID,999.924,VALID,0,VALID,90.3957,VALID,0,VALID,22.9013,VALID,31,VALID,0.340625,
2009-10-13, 03:11:04,VALID,999.868,VALID,0,VALID,90.6551,VALID,0,VALID,22.8623,VALID,31,VALID,0.204688,
2009-10-13, 03:12:04,VALID,999.807,VALID,0,VALID,90.8917,VALID,0,VALID,22.8623,VALID,31,VALID,0,
2009-10-13, 03:13:04,VALID,999.823,VALID,0,VALID,90.9451,VALID,0,VALID,22.8427,VALID,31,VALID,0,
2009-10-13, 03:14:04,VALID,999.826,VALID,0,VALID,91.029,VALID,0,VALID,22.8232,VALID,31,VALID,0.00078125,
2009-10-13, 03:15:04,VALID,999.848,VALID,0,VALID,91.1663,VALID,0,VALID,22.8232,VALID,31,VALID,0.351563,
2009-10-13, 03:16:04,VALID,999.864,VALID,0,VALID,91.4028,VALID,0,VALID,22.7842,VALID,31,VALID,0.559766,
2009-10-13, 03:17:04,VALID,999.904,VALID,0,VALID,91.2655,VALID,0,VALID,22.7647,VALID,31,VALID,0.695703,
2009-10-13, 03:18:04,VALID,999.914,VALID,0,VALID,91.1129,VALID,0,VALID,22.7842,VALID,31,VALID,0.734375,
2009-10-13, 03:19:04,VALID,999.922,VALID,0,VALID,90.7009,VALID,0,VALID,22.7664,VALID,31,VALID,0.777344,
2009-10-13, 03:20:04,VALID,999.956,VALID,0,VALID,90.6323,VALID,0,VALID,22.7274,VALID,30,VALID,0.585938,
2009-10-13, 03:21:04,VALID,999.947,VALID,0,VALID,91.0595,VALID,0,VALID,22.7469,VALID,30,VALID,0.541406,
2009-10-13, 03:22:04,VALID,999.984,VALID,0,VALID,91.4639,VALID,0,VALID,22.7452,VALID,30,VALID,0.436328,
2009-10-13, 03:23:04,VALID,999.953,VALID,0,VALID,91.5326,VALID,0,VALID,22.7647,VALID,30,VALID,0.249609,
2009-10-13, 03:24:04,VALID,999.953,VALID,0,VALID,91.5173,VALID,0,VALID,22.7647,VALID,30,VALID,0.328516,
2009-10-13, 03:25:04,VALID,999.96,VALID,0,VALID,91.7691,VALID,0,VALID,22.7452,VALID,30,VALID,0.215625,
2009-10-13, 03:26:04,VALID,999.929,VALID,0,VALID,91.8454,VALID,0,VALID,22.7664,VALID,30,VALID,0.0921875,
2009-10-13, 03:27:04,VALID,999.974,VALID,0,VALID,91.8225,VALID,0,VALID,22.7257,VALID,30,VALID,0,
2009-10-13, 03:28:04,VALID,999.931,VALID,0,VALID,91.8225,VALID,0,VALID,22.7062,VALID,30,VALID,0.239453,
2009-10-13, 03:29:04,VALID,999.923,VALID,0,VALID,91.7385,VALID,0,VALID,22.6884,VALID,30,VALID,0.549219,
2009-10-13, 03:30:04,VALID,999.932,VALID,0,VALID,91.6165,VALID,0,VALID,22.6477,VALID,30,VALID,0.591797,
2009-10-13, 03:31:04,VALID,999.945,VALID,0,VALID,91.4868,VALID,0,VALID,22.6477,VALID,34,VALID,0.701953,
2009-10-13, 03:32:04,VALID,999.956,VALID,0,VALID,91.9369,VALID,0,VALID,22.6884,VALID,45,VALID,0.941016,
2009-10-13, 03:33:04,VALID,999.973,VALID,0,VALID,92.1734,VALID,0,VALID,22.7647,VALID,47,VALID,0.779297,
2009-10-13, 03:34:04,VALID,999.979,VALID,0,VALID,91.914,VALID,0,VALID,22.8037,VALID,47,VALID,0.627734,
2009-10-13, 03:35:04,VALID,999.983,VALID,0,VALID,91.7157,VALID,0,VALID,22.8427,VALID,47,VALID,0.714063,
2009-10-13, 03:36:04,VALID,999.964,VALID,0,VALID,91.4944,VALID,0,VALID,22.8427,VALID,47,VALID,0.753906,
2009-10-13, 03:37:04,VALID,999.981,VALID,0,VALID,91.3342,VALID,0,VALID,22.8623,VALID,47,VALID,0.770703,
2009-10-13, 03:38:04,VALID,999.955,VALID,0,VALID,91.1587,VALID,0,VALID,22.8232,VALID,49,VALID,0.575781,
2009-10-13, 03:39:04,VALID,999.967,VALID,0,VALID,91.5402,VALID,0,VALID,22.8427,VALID,65,VALID,0.616406,
2009-10-13, 03:40:04,VALID,999.954,VALID,0,VALID,91.4257,VALID,0,VALID,22.8445,VALID,72,VALID,0.483203,
2009-10-13, 03:41:04,VALID,999.931,VALID,0,VALID,91.4181,VALID,0,VALID,22.8037,VALID,72,VALID,0.334766,
2009-10-13, 03:42:04,VALID,999.902,VALID,0,VALID,91.4105,VALID,0,VALID,22.8037,VALID,72,VALID,0.176563,
2009-10-13, 03:43:04,VALID,999.89,VALID,0,VALID,91.4028,VALID,0,VALID,22.7842,VALID,72,VALID,0.107031,
2009-10-13, 03:44:04,VALID,999.87,VALID,0,VALID,91.4028,VALID,0,VALID,22.7842,VALID,72,VALID,0.154687,
2009-10-13, 03:45:04,VALID,999.847,VALID,0,VALID,91.4715,VALID,0,VALID,22.7664,VALID,72,VALID,0.255078,
2009-10-13, 03:46:04,VALID,999.82,VALID,0,VALID,91.502,VALID,0,VALID,22.8055,VALID,72,VALID,0.338672,